TimeCDT,TemperatureF,Dew PointF,Humidity,Sea Level PressureIn,VisibilityMPH,Wind Direction,Wind SpeedMPH,Gust SpeedMPH,PrecipitationIn,Events,Conditions,WindDirDegrees,DateUTC
12:53 AM,45.0,39.9,82,30.27,10.0,Calm,Calm,-,N/A,,Clear,0,2013-05-12 05:53:00
1:53 AM,46.0,42.1,86,30.26,10.0,Calm,Calm,-,N/A,,Clear,0,2013-05-12 06:53:00
2:53 AM,45.0,42.1,90,30.24,10.0,Calm,Calm,-,N/A,,Clear,0,2013-05-12 07:53:00
3:53 AM,42.1,39.0,89,30.23,10.0,SSE,3.5,-,N/A,,Clear,160,2013-05-12 08:53:00
4:53 AM,46.9,39.0,74,30.24,10.0,Calm,Calm,-,N/A,,Partly Cloudy,0,2013-05-12 09:53:00
5:53 AM,44.1,37.0,76,30.25,10.0,East,4.6,-,N/A,,Scattered Clouds,100,2013-05-12 10:53:00
6:53 AM,45.0,35.1,68,30.25,10.0,ESE,4.6,-,N/A,,Scattered Clouds,110,2013-05-12 11:53:00
7:53 AM,48.9,37.9,66,30.28,10.0,SE,4.6,-,N/A,,Scattered Clouds,130,2013-05-12 12:53:00
8:53 AM,52.0,36.0,54,30.28,10.0,SSE,6.9,-,N/A,,Mostly Cloudy,150,2013-05-12 13:53:00
9:53 AM,55.0,34.0,45,30.29,10.0,ESE,5.8,-,N/A,,Mostly Cloudy,110,2013-05-12 14:53:00
10:53 AM,60.1,37.0,42,30.26,10.0,SE,11.5,-,N/A,,Mostly Cloudy,140,2013-05-12 15:53:00
11:53 AM,64.0,37.0,37,30.23,10.0,SSE,15.0,20.7,N/A,,Scattered Clouds,150,2013-05-12 16:53:00
12:14 PM,64.4,39.2,40,30.22,10.0,SSE,15.0,-,N/A,Thunderstorm,Thunderstorm,150,2013-05-12 17:14:00
12:28 PM,64.4,37.4,37,30.21,10.0,SSE,16.1,-,N/A,,Mostly Cloudy,150,2013-05-12 17:28:00
12:53 PM,62.1,39.9,44,30.21,10.0,South,15.0,-,N/A,,Scattered Clouds,180,2013-05-12 17:53:00
1:53 PM,64.9,43.0,45,30.20,10.0,SSE,12.7,18.4,N/A,,Scattered Clouds,160,2013-05-12 18:53:00
2:53 PM,66.0,43.0,43,30.19,10.0,SSE,13.8,19.6,N/A,,Scattered Clouds,150,2013-05-12 19:53:00
3:53 PM,68.0,45.0,43,30.15,10.0,South,17.3,27.6,N/A,,Partly Cloudy,170,2013-05-12 20:53:00
4:53 PM,70.0,44.1,39,30.12,10.0,SSE,17.3,-,N/A,,Scattered Clouds,160,2013-05-12 21:53:00
5:53 PM,69.1,45.0,42,30.10,10.0,SSE,15.0,23.0,N/A,,Partly Cloudy,160,2013-05-12 22:53:00
6:53 PM,68.0,44.1,42,30.08,10.0,SE,16.1,-,N/A,,Partly Cloudy,140,2013-05-12 23:53:00
7:53 PM,66.0,44.1,45,30.07,10.0,SE,11.5,-,N/A,,Partly Cloudy,130,2013-05-13 00:53:00
8:53 PM,62.1,46.0,56,30.08,10.0,ESE,12.7,-,N/A,,Clear,120,2013-05-13 01:53:00
9:53 PM,60.1,44.1,55,30.09,10.0,ESE,11.5,-,N/A,,Clear,120,2013-05-13 02:53:00
10:53 PM,57.9,44.1,60,30.09,10.0,SE,13.8,-,N/A,,Partly Cloudy,130,2013-05-13 03:53:00
11:53 PM,55.9,44.1,64,30.09,10.0,ESE,10.4,-,N/A,,Scattered Clouds,120,2013-05-13 04:53:00